Location: Bieujac
(44.5398°N, 0.1549°W)
Time: 11:32:13
(UTC+00:00)

NOSS 3-3 (A) - Pass Details

Date: 23 February 2020
Orbit: 836 x 1376 km, 63.4° (Epoch: 06 April)

Event Time Altitude Azimuth Distance (km) Brightness Sun altitude
Exits shadow 04:49:10 - 194° (SSW) 2,580 6.0 -22.1°
Reaches altitude 10° 04:49:22 10° 194° (SSW) 2,508 5.9 -22.1°
Maximum altitude 04:54:57 52° 119° (ESE) 1,137 4.6 -21.1°
Drops below altitude 10° 05:01:11 10° 45° (NE) 2,798 7.1 -20.0°
Sets 05:04:01 0° 41° (NE) 3,837 7.8 -19.5°
